Flag for U.S.A. Weather past 2 weeks in Lafayette, Louisiana, U.S.A.

Now
49 °F

Sunny.


Feels Like: 45 °F
Forecast: 29 / 53 °F
Wind: 10 mph from Northeast

Location: Lafayette Regional Airport

Current Time: Mar 6, 2015 at 4:42:39 PM

Latest Report: Mar 6, 2015 at 3:53 PM


Visibility: 10 mi

Pressure: 30.45 "Hg

Humidity: 32%

Dew point: 20 °F

Location of LafayetteLocation

Historic Weather in Lafayette — Graph

°F

Lafayette temperature yesterday

Maximum temperature yesterday: 72 °F (at 12:53 AM)
Minimum temperature yesterday: 32 °F (at 1:53 PM)
Average temperature yesterday: 38 °F

Past Weeks' High & Low Weather Summary

 TemperatureHumidityPressure
High79 °F (Mar 3, 2:53 PM)100% (Feb 25, 7:53 AM)30.57 "Hg (Feb 25, 7:53 AM)
Low29 °F (Mar 6, 4:53 AM)29% (Mar 6, 1:53 PM)29.76 "Hg (Feb 25, 3:00 PM)
Average51 °F79%30.17 "Hg
* Reported Feb 19 2:53 PM — Mar 6 2:53 PM, Lafayette, Weather by CustomWeather, © 2015

Note: Actual official high and low records may vary slightly from our data, if they occured in-between our weather recording intervals... More about our weather records

Advertising

Lafayette weather history for previous 24 hours

 ConditionsComfort  
Time TempWeatherWind HumidityBarometerVisibility
2:53 PM
Fri, Mar 6
48 °FSunny.12 mph32%30.45 "Hg10 mi
1:53 PM49 °FSunny.15 mph29%30.46 "Hg10 mi
12:53 PM47 °FSunny.15 mph32%30.50 "Hg10 mi
11:53 AM44 °FSunny.14 mph31%30.53 "Hg10 mi
10:53 AM41 °FSunny.18 mph32%30.55 "Hg10 mi
9:53 AM38 °FSunny.17 mph34%30.57 "Hg10 mi
8:53 AM35 °FSunny.15 mph42%30.55 "Hg10 mi
7:53 AM31 °FSunny.16 mph49%30.53 "Hg10 mi
6:53 AM29 °FSunny.12 mph54%30.53 "Hg10 mi
5:53 AM29 °FClear.14 mph51%30.52 "Hg10 mi
4:53 AM29 °FClear.13 mph54%30.50 "Hg10 mi
3:53 AM30 °FClear.9 mph56%30.49 "Hg10 mi
2:53 AM30 °FClear.15 mph59%30.48 "Hg10 mi
1:53 AM31 °FClear.14 mph57%30.50 "Hg10 mi
12:53 AM32 °FClear.14 mph56%30.50 "Hg10 mi
11:53 PM
Thu, Mar 5
32 °FClear.14 mph61%30.51 "Hg10 mi
10:53 PM33 °FClear.14 mph61%30.52 "Hg10 mi
9:53 PM34 °FClear.18 mph59%30.51 "Hg10 mi
8:53 PM34 °FClear.16 mph64%30.49 "Hg10 mi
7:53 PM35 °FClear.14 mph61%30.48 "Hg10 mi
6:53 PM35 °FClear.22 mph59%30.45 "Hg10 mi
5:53 PM36 °FScattered clouds.23 mph57%30.42 "Hg10 mi
4:53 PM38 °FPartly sunny.21 mph65%30.39 "Hg10 mi
Weather by CustomWeather, © 2015

See weather overviewHow to use our weather pages